2023/01/27 00:00:00,100.2,-2.2
2023/01/27 00:10:00,100.1,-1.9
2023/01/27 00:20:00,100.0,-2.2
2023/01/27 00:30:00,99.9,-2.2
2023/01/27 00:40:00,99.8,-2.5
2023/01/27 00:50:00,99.8,-2.5
2023/01/27 01:00:00,99.9,-2.2
2023/01/27 01:10:00,99.9,-2.4
2023/01/27 01:20:00,99.9,-2.6
2023/01/27 01:30:00,99.8,-2.4
2023/01/27 01:40:00,99.8,-2.4
2023/01/27 01:50:00,99.8,-2.1
2023/01/27 02:00:00,99.8,-2.4
2023/01/27 02:10:00,99.7,-2.5
2023/01/27 02:20:00,99.6,-2.6
2023/01/27 02:30:00,99.5,-2.3
2023/01/27 02:40:00,99.3,-2.2
2023/01/27 02:50:00,99.2,-2.7
2023/01/27 03:00:00,99.2,-2.2
2023/01/27 03:10:00,99.2,-2.3
2023/01/27 03:20:00,99.1,-2.3
2023/01/27 03:30:00,99.1,-2.1
2023/01/27 03:40:00,99.0,-1.8
2023/01/27 03:50:00,98.9,-2.1
2023/01/27 04:00:00,98.9,-2.2
2023/01/27 04:10:00,98.9,-2.0
2023/01/27 04:20:00,98.8,-1.8
2023/01/27 04:30:00,98.7,-2.1
2023/01/27 04:40:00,98.7,-2.0
2023/01/27 04:50:00,98.6,-1.9
2023/01/27 05:00:00,98.6,-1.9
2023/01/27 05:10:00,98.5,-1.8
2023/01/27 05:20:00,98.4,-1.9
2023/01/27 05:30:00,98.3,-1.8
2023/01/27 05:40:00,98.2,-1.8
2023/01/27 05:50:00,98.2,-1.6
2023/01/27 06:00:00,98.4,-1.7
2023/01/27 06:10:00,98.5,-1.4
2023/01/27 06:20:00,98.6,-1.2
2023/01/27 06:30:00,98.4,-1.2
2023/01/27 06:40:00,98.4,-1.2
2023/01/27 06:50:00,98.7,-1.1
2023/01/27 07:00:00,99.1,-0.8
2023/01/27 07:10:00,99.2,-1.3
2023/01/27 07:20:00,99.1,-1.1
2023/01/27 07:30:00,99.2,-0.8
2023/01/27 07:40:00,99.4,-0.6
2023/01/27 07:50:00,99.4,-0.5
2023/01/27 08:00:00,99.4, 0.0
2023/01/27 08:10:00,99.3, 0.1
2023/01/27 08:20:00,99.2, 0.5
2023/01/27 08:30:00,99.1, 0.3
2023/01/27 08:40:00,99.0, 0.6
2023/01/27 08:50:00,98.9, 0.8
2023/01/27 09:00:00,98.8, 0.6
2023/01/27 09:10:00,98.8, 1.1
2023/01/27 09:20:00,98.7, 0.8
2023/01/27 09:30:00,98.6, 1.4
2023/01/27 09:40:00,98.6, 2.1
2023/01/27 09:50:00,98.6, 1.3
2023/01/27 10:00:00,98.6, 1.9
2023/01/27 10:10:00,98.6, 2.0
2023/01/27 10:20:00,98.4, 2.0
2023/01/27 10:30:00,98.4, 1.6
2023/01/27 10:40:00,98.4, 1.8
2023/01/27 10:50:00,98.3, 2.1
2023/01/27 11:00:00,98.6, 1.7
2023/01/27 11:10:00,98.6, 1.5
2023/01/27 11:20:00,98.9, 1.5
2023/01/27 11:30:00,99.1, 2.0
2023/01/27 11:40:00,99.3, 1.6
2023/01/27 11:50:00,99.6, 1.3
2023/01/27 12:00:00,99.8, 2.1
2023/01/27 12:10:00,99.6, 3.7
2023/01/27 12:20:00,99.4, 4.3
2023/01/27 12:30:00,99.2, 3.4
2023/01/27 12:40:00,99.0, 2.7
2023/01/27 12:50:00,99.0, 3.2
2023/01/27 13:00:00,98.9, 3.4
2023/01/27 13:10:00,98.7, 2.8
2023/01/27 13:20:00,98.5, 2.6
2023/01/27 13:30:00,98.5, 3.2
2023/01/27 13:40:00,98.4, 2.5
2023/01/27 13:50:00,98.3, 1.7
2023/01/27 14:00:00,98.4, 0.2
2023/01/27 14:10:00,99.0, 0.5
2023/01/27 14:20:00,99.5, 1.0
2023/01/27 14:30:00,100.1, 0.5
2023/01/27 14:40:00,101.0, 0.5
2023/01/27 14:50:00,102.1, 0.4
2023/01/27 15:00:00,102.8, 1.3
2023/01/27 15:10:00,102.9, 0.4
2023/01/27 15:20:00,102.4, 0.4
2023/01/27 15:30:00,103.0, 0.3
2023/01/27 15:40:00,103.5, 0.2
2023/01/27 15:50:00,103.8, 0.3
2023/01/27 16:00:00,104.0,-0.2
2023/01/27 16:10:00,104.5,-0.3
2023/01/27 16:20:00,104.7,-0.2
2023/01/27 16:30:00,104.9,-0.1
2023/01/27 16:40:00,104.9,-0.1
2023/01/27 16:50:00,105.0,-0.2
2023/01/27 17:00:00,105.0,-0.1
2023/01/27 17:10:00,105.2,-0.1
2023/01/27 17:20:00,105.2,-0.3
2023/01/27 17:30:00,105.1,-0.2
2023/01/27 17:40:00,105.4,-0.3
2023/01/27 17:50:00,105.6,-0.7
2023/01/27 18:00:00,105.5,-0.9
2023/01/27 18:10:00,105.5,-1.0
2023/01/27 18:20:00,106.0,-1.2
2023/01/27 18:30:00,105.9,-1.1
2023/01/27 18:40:00,106.3,-1.1
2023/01/27 18:50:00,107.0,-1.1
2023/01/27 19:00:00,107.5,-1.3
2023/01/27 19:10:00,108.7,-1.3
2023/01/27 19:20:00,109.0,-1.4
2023/01/27 19:30:00,109.0,-1.4
2023/01/27 19:40:00,109.2,-1.5
2023/01/27 19:50:00,109.2,-1.4
2023/01/27 20:00:00,109.1,-1.4
2023/01/27 20:10:00,109.4,-1.3
2023/01/27 20:20:00,110.1,-1.5
2023/01/27 20:30:00,109.8,-1.3
2023/01/27 20:40:00,109.9,-1.6
2023/01/27 20:50:00,110.1,-1.7
2023/01/27 21:00:00,110.0,-1.6
2023/01/27 21:10:00,109.9,-1.5
2023/01/27 21:20:00,110.2,-1.3
2023/01/27 21:30:00,111.4,-1.7
2023/01/27 21:40:00,112.2,-1.4
2023/01/27 21:50:00,112.5,-1.7
2023/01/27 22:00:00,112.4,-1.4
2023/01/27 22:10:00,112.4,-1.2
2023/01/27 22:20:00,112.4,-1.1
2023/01/27 22:30:00,112.7,-0.8
2023/01/27 22:40:00,113.1,-1.0
2023/01/27 22:50:00,113.5,-0.8
2023/01/27 23:00:00,114.2,-0.9
2023/01/27 23:10:00,115.2,-1.1
2023/01/27 23:20:00,116.5,-1.1
2023/01/27 23:30:00,117.8,-1.2
2023/01/27 23:40:00,118.8,-1.2
2023/01/27 23:50:00,119.6,-1.3
